Batman, Turkey

6:47 PM EEST on August 28, 2016 (GMT +0300)
Batman Air Base

Weather History for LTCJ - August, 2013

Change the Weather History Date:

Friday, August 9, 2013

  Actual Average (LTCC) Record (LTCC)
Temperature  
Mean Temperature 82 °F -  
Max Temperature 100 °F 100 °F 107 °F (2003)
Min Temperature 64 °F 71 °F 64 °F (2010)
Cooling Degree Days 17    
Growing Degree Days 32 (Base 50)    
Moisture  
Dew Point 47 °F    
Average Humidity 33    
Maximum Humidity 64    
Minimum Humidity 11    
Precipitation  
Precipitation 0.00 in - - ()
Sea Level Pressure  
Sea Level Pressure 29.63 in    
Wind  
Wind Speed 4 mph ()    
Max Wind Speed 10 mph    
Max Gust Speed -    
Visibility 6.2 miles    
Events      
Averages and records for this station are not official NWS values.
T = Trace of Precipitation, MM = Missing Value Source: Averaged Metar Reports

Daily Weather History Graph

Daily Weather History Graph

Search for Another Location

Airport or City:

Trip Planner

Search our weather history database for the weather conditions in past years. The results will help you decide how hot, cold, wet, or windy it might be!

Date:

Astronomy

Aug. 09, 2013 Rise Set
Actual Time 5:25 AM EEST 7:15 PM EEST
Civil Twilight 4:56 AM EEST 7:44 PM EEST
Nautical Twilight 4:22 AM EEST 8:18 PM EEST
Astronomical Twilight 3:45 AM EEST 8:55 PM EEST
Moon 7:46 AM EEST (8/9) 8:18 PM EEST (8/9)
Length of Visible Light 14h 47m
Length of Day
13h 50m
Waxing Crescent, 6% of the Moon is Illuminated
Aug 9
Waxing Crescent
Aug 14
First Quarter
Aug 21
Full
Aug 28
Last Quarter
Sep 5
New

Hourly Weather History & Observations

Time (EEST) Temp. Heat Index Dew Point Humidity Pressure Visibility Wind Dir Wind Speed Gust Speed Precip Events Conditions
12:20 AM 71.6 °F - 46.4 °F 41% 29.65 in - NNE 4.6 mph - N/A   Clear
12:50 AM 71.6 °F - 46.4 °F 41% 29.65 in - Variable 1.2 mph - N/A   Clear
1:20 AM 71.6 °F - 46.4 °F 41% 29.65 in - NE 2.3 mph - N/A   Clear
1:50 AM 69.8 °F - 53.6 °F 56% 29.65 in - West 3.5 mph - N/A   Clear
2:20 AM 68.0 °F - 53.6 °F 60% 29.65 in - Calm Calm - N/A   Clear
2:50 AM 71.6 °F - 51.8 °F 50% 29.65 in - Variable 2.3 mph - N/A   Clear
3:20 AM 71.6 °F - 53.6 °F 53% 29.65 in - NW 3.5 mph - N/A   Clear
3:50 AM 71.6 °F - 51.8 °F 50% 29.65 in - West 3.5 mph - N/A   Clear
4:20 AM 66.2 °F - 51.8 °F 60% 29.65 in - SW 6.9 mph - N/A   Clear
4:50 AM 64.4 °F - 51.8 °F 64% 29.65 in - SSW 4.6 mph - N/A   Clear
5:20 AM 64.4 °F - 50.0 °F 59% 29.65 in - SSW 4.6 mph - N/A   Clear
5:50 AM 64.4 °F - 48.2 °F 56% 29.68 in - SSW 3.5 mph - N/A   Clear
6:20 AM 68.0 °F - 50.0 °F 52% 29.68 in - SSW 3.5 mph - N/A   Clear
6:50 AM 69.8 °F - 48.2 °F 46% 29.68 in - South 4.6 mph - N/A   Clear
7:20 AM 73.4 °F - 46.4 °F 38% 29.68 in - SSW 5.8 mph - N/A   Clear
7:50 AM 75.2 °F - 48.2 °F 38% 29.68 in - SW 6.9 mph - N/A   Clear
8:20 AM 78.8 °F - 50.0 °F 36% 29.68 in - SW 5.8 mph - N/A   Clear
8:50 AM 84.2 °F - 48.2 °F 29% 29.68 in - Variable 3.5 mph - N/A   Clear
9:20 AM 87.8 °F - 50.0 °F 27% 29.68 in - NNW 8.1 mph - N/A   Clear
9:50 AM 91.4 °F - 46.4 °F 21% 29.68 in - NNW 9.2 mph - N/A   Clear
10:20 AM 93.2 °F - 44.6 °F 19% 29.65 in - North 10.4 mph - N/A   Clear
10:50 AM 95.0 °F - 42.8 °F 16% 29.65 in - North 10.4 mph - N/A   Clear
11:20 AM 95.0 °F - 42.8 °F 16% 29.65 in - NNW 8.1 mph - N/A   Clear
11:50 AM 96.8 °F - 42.8 °F 16% 29.65 in - North 8.1 mph - N/A   Clear
12:20 PM 96.8 °F - 42.8 °F 16% 29.62 in - NNW 8.1 mph - N/A   Clear
12:50 PM 96.8 °F - 41.0 °F 15% 29.62 in - NNW 8.1 mph - N/A   Clear
1:20 PM 98.6 °F - 39.2 °F 13% 29.62 in 6.2 mi NNW 6.9 mph - N/A   Partly Cloudy
1:50 PM 98.6 °F - 39.2 °F 13% 29.62 in 6.2 mi NW 5.8 mph - N/A   Partly Cloudy
2:20 PM 100.4 °F - 37.4 °F 11% 29.59 in 6.2 mi Variable 5.8 mph - N/A   Partly Cloudy
2:50 PM 100.4 °F - 41.0 °F 13% 29.59 in 6.2 mi NE 8.1 mph - N/A   Partly Cloudy
3:20 PM 100.4 °F - 39.2 °F 12% 29.59 in 6.2 mi NNE 8.1 mph - N/A   Partly Cloudy
3:50 PM 100.4 °F - 39.2 °F 12% 29.59 in 6.2 mi North 8.1 mph - N/A   Partly Cloudy
4:20 PM 100.4 °F - 39.2 °F 12% 29.59 in 6.2 mi NNE 6.9 mph - N/A   Partly Cloudy
4:50 PM 100.4 °F - 39.2 °F 12% 29.59 in 6.2 mi NNE 5.8 mph - N/A   Partly Cloudy
5:20 PM 98.6 °F - 42.8 °F 15% 29.56 in 6.2 mi Variable 3.5 mph - N/A   Partly Cloudy
5:50 PM 98.6 °F - 37.4 °F 12% 29.56 in - NE 6.9 mph - N/A   Clear
6:20 PM 96.8 °F - 39.2 °F 14% 29.56 in - NE 5.8 mph - N/A   Clear
6:50 PM 91.4 °F 89.9 °F 57.2 °F 31% 29.56 in - NNW 3.5 mph - N/A   Clear
7:20 PM 86.0 °F 84.5 °F 55.4 °F 35% 29.56 in - North 4.6 mph - N/A   Clear
7:50 PM 82.4 °F - 50.0 °F 32% 29.59 in - NE 5.8 mph - N/A   Clear
8:20 PM 82.4 °F 81.7 °F 55.4 °F 39% 29.59 in - NNW 3.5 mph - N/A   Clear
8:50 PM 78.8 °F - 53.6 °F 42% 29.59 in - NE 5.8 mph - N/A   Clear
9:20 PM 75.2 °F - 57.2 °F 53% 29.59 in - North 4.6 mph - N/A   Clear
9:50 PM 78.8 °F - 50.0 °F 36% 29.59 in - NE 5.8 mph - N/A   Clear
10:20 PM 77.0 °F - 48.2 °F 36% 29.59 in - NE 4.6 mph - N/A   Clear
10:50 PM 77.0 °F - 48.2 °F 36% 29.59 in - North 4.6 mph - N/A   Clear
11:20 PM 71.6 °F - 55.4 °F 57% 29.62 in - WSW 3.5 mph - N/A   Clear
11:50 PM 73.4 °F - 51.8 °F 47% 29.59 in - SSE 3.5 mph - N/A   Clear